Time,TemperatureF,DewpointF,PressureIn,WindDirection,WindDirectionDegrees,WindSpeedMPH,WindSpeedGustMPH,Humidity,HourlyPrecipIn,Conditions,Clouds,dailyrainin,SoftwareType,DateUTC
2013-04-17 00:02:00,45.0,37.0,30.22,East,98,5.0,11.0,73,0.00,,,0.15,,2013-04-17 05:02:00,
2013-04-17 00:12:00,45.0,37.0,30.22,East,98,5.0,11.0,73,0.00,,,0.15,,2013-04-17 05:12:00,
2013-04-17 00:22:00,45.0,37.0,30.22,NNE,30,4.0,11.0,73,0.00,,,0.15,,2013-04-17 05:22:00,
2013-04-17 00:32:00,45.0,38.0,30.21,ENE,76,4.0,10.0,75,0.00,,,0.15,,2013-04-17 05:32:00,
2013-04-17 00:42:00,45.0,38.0,30.21,ENE,76,4.0,10.0,75,0.00,,,0.15,,2013-04-17 05:42:00,
2013-04-17 00:52:00,44.0,37.0,30.22,North,355,5.0,10.0,75,0.00,,,0.15,,2013-04-17 05:52:00,
2013-04-17 01:02:00,44.0,36.0,30.23,East,84,4.0,12.0,73,0.00,,,0.15,,2013-04-17 06:02:00,
2013-04-17 01:12:00,44.0,36.0,30.23,East,84,4.0,12.0,73,0.00,,,0.15,,2013-04-17 06:12:00,
2013-04-17 01:22:00,44.0,37.0,30.23,ESE,117,2.0,6.0,76,0.00,,,0.15,,2013-04-17 06:22:00,
2013-04-17 01:32:00,44.0,36.0,30.24,NNE,32,2.0,10.0,73,0.00,,,0.15,,2013-04-17 06:32:00,
2013-04-17 01:42:00,44.0,36.0,30.24,NNE,32,2.0,10.0,73,0.00,,,0.15,,2013-04-17 06:42:00,
2013-04-17 01:52:00,44.0,36.0,30.24,ENE,57,4.0,8.0,72,0.00,,,0.15,,2013-04-17 06:52:00,
2013-04-17 02:02:00,44.0,36.0,30.23,ENE,70,4.0,9.0,72,0.00,,,0.15,,2013-04-17 07:02:00,
2013-04-17 02:12:00,44.0,36.0,30.23,ENE,70,4.0,9.0,72,0.00,,,0.15,,2013-04-17 07:12:00,
2013-04-17 02:22:00,44.0,36.0,30.23,NNE,31,2.0,13.0,73,0.00,,,0.11,,2013-04-17 07:22:00,
2013-04-17 02:32:00,44.0,36.0,30.22,NE,38,3.0,8.0,72,0.00,,,0.11,,2013-04-17 07:32:00,
2013-04-17 02:42:00,44.0,36.0,30.22,NE,38,3.0,8.0,72,0.00,,,0.11,,2013-04-17 07:42:00,
2013-04-17 02:52:00,44.0,35.0,30.21,NNW,348,3.0,10.0,71,0.00,,,0.11,,2013-04-17 07:52:00,
2013-04-17 03:02:00,44.0,35.0,30.22,North,360,1.0,8.0,71,0.00,,,0.11,,2013-04-17 08:02:00,
2013-04-17 03:12:00,44.0,35.0,30.22,North,360,1.0,8.0,71,0.00,,,0.11,,2013-04-17 08:12:00,
2013-04-17 03:22:00,45.0,36.0,30.21,ENE,68,4.0,9.0,71,0.00,,,0.04,,2013-04-17 08:22:00,
2013-04-17 03:32:00,45.0,37.0,30.20,ENE,63,2.0,7.0,73,0.00,,,0.04,,2013-04-17 08:32:00,
2013-04-17 03:42:00,45.0,37.0,30.20,ENE,63,2.0,7.0,73,0.00,,,0.04,,2013-04-17 08:42:00,
2013-04-17 03:52:00,44.0,36.0,30.21,NNE,15,3.0,9.0,74,0.00,,,0.04,,2013-04-17 08:52:00,
2013-04-17 04:02:00,44.0,36.0,30.20,NE,55,3.0,6.0,74,0.00,,,0.04,,2013-04-17 09:02:00,
2013-04-17 04:12:00,44.0,36.0,30.20,NE,55,3.0,6.0,74,0.00,,,0.04,,2013-04-17 09:12:00,
2013-04-17 04:22:00,44.0,35.0,30.20,NNW,331,5.0,10.0,70,0.00,,,0.01,,2013-04-17 09:22:00,
2013-04-17 04:33:00,44.0,35.0,30.19,ENE,59,4.0,11.0,70,0.00,,,0.01,,2013-04-17 09:33:00,
2013-04-17 04:42:00,44.0,35.0,30.19,ENE,59,4.0,11.0,70,0.00,,,0.01,,2013-04-17 09:42:00,
2013-04-17 04:52:00,44.0,35.0,30.19,ESE,109,4.0,9.0,71,0.00,,,0.01,,2013-04-17 09:52:00,
2013-04-17 05:02:00,44.0,36.0,30.18,NE,49,3.0,8.0,72,0.00,,,0.01,,2013-04-17 10:02:00,
2013-04-17 05:12:00,44.0,36.0,30.18,NE,49,3.0,8.0,72,0.00,,,0.01,,2013-04-17 10:12:00,
2013-04-17 05:23:00,44.0,36.0,30.18,East,89,1.0,9.0,72,0.00,,,0.01,,2013-04-17 10:23:00,
2013-04-17 05:32:00,44.0,36.0,30.16,East,80,3.0,11.0,73,0.00,,,0.01,,2013-04-17 10:32:00,
2013-04-17 05:42:00,44.0,36.0,30.16,East,80,3.0,11.0,73,0.00,,,0.01,,2013-04-17 10:42:00,
2013-04-17 05:53:00,44.0,36.0,30.16,SE,134,1.0,9.0,74,0.00,,,0.01,,2013-04-17 10:53:00,
2013-04-17 06:02:00,44.0,36.0,30.18,ESE,106,2.0,10.0,74,0.00,,,0.01,,2013-04-17 11:02:00,
2013-04-17 06:12:00,44.0,36.0,30.18,ESE,106,2.0,10.0,74,0.00,,,0.01,,2013-04-17 11:12:00,
2013-04-17 06:22:00,44.0,36.0,30.17,SE,146,3.0,8.0,74,0.00,,,0.01,,2013-04-17 11:22:00,
2013-04-17 06:32:00,43.0,37.0,30.16,ENE,77,3.0,11.0,78,0.01,,,0.02,,2013-04-17 11:32:00,
2013-04-17 06:42:00,43.0,37.0,30.16,ENE,77,3.0,11.0,78,0.01,,,0.02,,2013-04-17 11:42:00,
2013-04-17 06:52:00,43.0,37.0,30.17,ESE,119,1.0,9.0,78,0.01,,,0.02,,2013-04-17 11:52:00,
2013-04-17 07:02:00,44.0,37.0,30.16,East,96,3.0,10.0,77,0.01,,,0.02,,2013-04-17 12:02:00,
2013-04-17 07:12:00,44.0,37.0,30.16,East,96,3.0,10.0,77,0.01,,,0.02,,2013-04-17 12:12:00,
2013-04-17 07:22:00,44.0,38.0,30.16,NE,55,3.0,9.0,78,0.01,,,0.02,,2013-04-17 12:22:00,
2013-04-17 07:32:00,44.0,38.0,30.16,ENE,74,1.0,10.0,78,0.00,,,0.02,,2013-04-17 12:32:00,
2013-04-17 07:42:00,44.0,38.0,30.16,ENE,74,1.0,10.0,78,0.00,,,0.02,,2013-04-17 12:42:00,
2013-04-17 07:52:00,44.0,37.0,30.15,ENE,59,4.0,9.0,77,0.00,,,0.02,,2013-04-17 12:52:00,
2013-04-17 08:02:00,45.0,38.0,30.15,ESE,121,3.0,8.0,77,0.00,,,0.02,,2013-04-17 13:02:00,
2013-04-17 08:12:00,45.0,38.0,30.15,ESE,121,3.0,8.0,77,0.00,,,0.02,,2013-04-17 13:12:00,
2013-04-17 08:22:00,45.0,38.0,30.18,North,9,3.0,9.0,77,0.00,,,0.02,,2013-04-17 13:22:00,
2013-04-17 08:32:00,45.0,38.0,30.17,NNW,342,2.0,6.0,77,0.00,,,0.02,,2013-04-17 13:32:00,
2013-04-17 08:42:00,45.0,38.0,30.17,NNW,342,2.0,6.0,77,0.00,,,0.02,,2013-04-17 13:42:00,
2013-04-17 08:52:00,45.0,39.0,30.17,NNE,30,1.0,9.0,78,0.00,,,0.02,,2013-04-17 13:52:00,
2013-04-17 09:02:00,45.0,39.0,30.14,North,350,3.0,8.0,79,0.01,,,0.03,,2013-04-17 14:02:00,
2013-04-17 09:12:00,45.0,39.0,30.14,North,350,3.0,8.0,79,0.01,,,0.03,,2013-04-17 14:12:00,
2013-04-17 09:22:00,45.0,40.0,30.13,North,360,4.0,9.0,81,0.01,,,0.03,,2013-04-17 14:22:00,
2013-04-17 09:32:00,45.0,40.0,30.11,ENE,75,3.0,9.0,81,0.01,,,0.03,,2013-04-17 14:32:00,
2013-04-17 09:42:00,45.0,39.0,30.10,NNE,20,2.0,9.0,80,0.01,,,0.03,,2013-04-17 14:42:00,
2013-04-17 09:52:00,45.0,39.0,30.10,NNE,20,2.0,9.0,80,0.01,,,0.03,,2013-04-17 14:52:00,
2013-04-17 10:02:00,46.0,40.0,30.09,SE,126,5.0,9.0,78,0.00,,,0.03,,2013-04-17 15:02:00,
2013-04-17 10:12:00,47.0,40.0,30.10,ESE,115,3.0,8.0,77,0.00,,,0.03,,2013-04-17 15:12:00,
2013-04-17 10:22:00,47.0,40.0,30.10,ESE,115,3.0,8.0,77,0.00,,,0.03,,2013-04-17 15:22:00,
2013-04-17 10:33:00,47.0,40.0,30.09,ESE,117,3.0,10.0,77,0.00,,,0.03,,2013-04-17 15:33:00,
2013-04-17 10:42:00,47.0,40.0,30.09,ESE,117,3.0,10.0,77,0.00,,,0.03,,2013-04-17 15:42:00,
2013-04-17 10:53:00,48.0,41.0,30.09,SSE,159,2.0,10.0,78,0.00,,,0.03,,2013-04-17 15:53:00,
2013-04-17 11:03:00,48.0,42.0,30.08,ESE,107,3.0,11.0,79,0.00,,,0.03,,2013-04-17 16:03:00,
2013-04-17 11:12:00,48.0,42.0,30.08,ESE,107,3.0,11.0,79,0.00,,,0.03,,2013-04-17 16:12:00,
2013-04-17 11:22:00,48.0,42.0,30.07,ESE,117,5.0,12.0,79,0.00,,,0.03,,2013-04-17 16:22:00,
2013-04-17 11:32:00,48.0,42.0,30.05,SE,132,4.0,11.0,80,0.00,,,0.03,,2013-04-17 16:32:00,
2013-04-17 11:42:00,48.0,42.0,30.05,SE,132,4.0,11.0,80,0.00,,,0.03,,2013-04-17 16:42:00,
2013-04-17 11:52:00,49.0,43.0,30.04,East,85,8.0,15.0,81,0.00,,,0.03,,2013-04-17 16:52:00,
2013-04-17 12:02:00,49.0,44.0,30.04,East,80,7.0,15.0,82,0.00,,,0.03,,2013-04-17 17:02:00,
2013-04-17 12:12:00,49.0,44.0,30.04,East,80,7.0,15.0,82,0.00,,,0.03,,2013-04-17 17:12:00,
2013-04-17 12:22:00,49.0,44.0,30.03,ESE,121,4.0,11.0,84,0.00,,,0.03,,2013-04-17 17:22:00,
2013-04-17 12:33:00,49.0,44.0,30.03,ESE,121,4.0,11.0,84,0.00,,,0.03,,2013-04-17 17:33:00,
2013-04-17 12:42:00,49.0,44.0,30.03,ESE,121,4.0,11.0,84,0.00,,,0.03,,2013-04-17 17:42:00,
2013-04-17 12:52:00,49.0,46.0,30.01,ESE,112,4.0,12.0,88,0.00,,,0.03,,2013-04-17 17:52:00,
2013-04-17 13:02:00,49.0,46.0,30.01,East,93,2.0,10.0,89,0.00,,,0.03,,2013-04-17 18:02:00,
2013-04-17 13:12:00,49.0,46.0,30.01,East,93,2.0,10.0,89,0.00,,,0.03,,2013-04-17 18:12:00,
2013-04-17 13:22:00,49.0,46.0,30.01,East,93,2.0,10.0,89,0.00,,,0.03,,2013-04-17 18:22:00,
2013-04-17 13:32:00,49.0,46.0,30.01,East,93,2.0,10.0,89,0.00,,,0.03,,2013-04-17 18:32:00,
2013-04-17 13:42:00,49.0,46.0,30.01,East,93,2.0,10.0,89,0.00,,,0.03,,2013-04-17 18:42:00,
2013-04-17 14:22:00,50.0,48.0,29.95,SE,142,5.0,10.0,93,0.00,,,0.03,,2013-04-17 19:22:00,
2013-04-17 14:32:00,51.0,49.0,29.94,ESE,108,2.0,11.0,93,0.00,,,0.03,,2013-04-17 19:32:00,
2013-04-17 14:42:00,51.0,49.0,29.94,ESE,108,2.0,11.0,93,0.00,,,0.03,,2013-04-17 19:42:00,
2013-04-17 14:52:00,50.0,47.0,30.01,NNW,331,9.0,16.0,90,0.00,,,0.03,,2013-04-17 19:52:00,
2013-04-17 15:02:00,47.0,45.0,30.01,WNW,286,6.0,19.0,92,0.04,,,0.07,,2013-04-17 20:02:00,
2013-04-17 15:12:00,47.0,45.0,30.01,WNW,286,6.0,19.0,92,0.04,,,0.07,,2013-04-17 20:12:00,
2013-04-17 15:22:00,46.0,44.0,29.99,North,355,7.0,13.0,93,0.18,,,0.20,,2013-04-17 20:22:00,
2013-04-17 15:32:00,45.0,43.0,29.98,NW,311,7.0,14.0,93,0.18,,,0.20,,2013-04-17 20:32:00,
2013-04-17 15:42:00,45.0,43.0,29.98,NW,311,7.0,14.0,93,0.18,,,0.20,,2013-04-17 20:42:00,
2013-04-17 15:52:00,44.0,42.0,29.99,North,360,9.0,15.0,93,0.18,,,0.20,,2013-04-17 20:52:00,
2013-04-17 16:02:00,44.0,42.0,30.07,East,100,8.0,16.0,93,0.14,,,0.20,,2013-04-17 21:02:00,
2013-04-17 16:12:00,44.0,42.0,30.07,East,100,8.0,16.0,93,0.14,,,0.20,,2013-04-17 21:12:00,
2013-04-17 16:22:00,44.0,42.0,30.03,WNW,298,7.0,14.0,93,0.03,,,0.23,,2013-04-17 21:22:00,
2013-04-17 16:33:00,44.0,42.0,30.00,NE,49,5.0,14.0,93,0.03,,,0.23,,2013-04-17 21:33:00,
2013-04-17 16:42:00,44.0,42.0,30.00,NE,49,5.0,14.0,93,0.03,,,0.23,,2013-04-17 21:42:00,
2013-04-17 16:53:00,44.0,42.0,29.98,NE,44,1.0,9.0,94,0.11,,,0.31,,2013-04-17 21:53:00,
2013-04-17 17:02:00,45.0,43.0,29.97,NNE,19,1.0,5.0,94,0.17,,,0.37,,2013-04-17 22:02:00,
2013-04-17 17:12:00,45.0,43.0,29.97,NNE,19,1.0,5.0,94,0.17,,,0.37,,2013-04-17 22:12:00,
2013-04-17 17:22:00,46.0,45.0,29.96,East,98,2.0,5.0,95,0.21,,,0.44,,2013-04-17 22:22:00,
2013-04-17 17:33:00,46.0,45.0,29.96,South,188,1.0,13.0,95,0.25,,,0.48,,2013-04-17 22:33:00,
2013-04-17 17:42:00,46.0,45.0,29.96,South,188,1.0,13.0,95,0.25,,,0.48,,2013-04-17 22:42:00,
2013-04-17 17:53:00,47.0,46.0,29.93,ENE,78,5.0,11.0,95,0.17,,,0.49,,2013-04-17 22:53:00,
2013-04-17 18:02:00,46.0,44.0,29.91,ENE,69,2.0,7.0,94,0.12,,,0.50,,2013-04-17 23:02:00,
2013-04-17 18:12:00,46.0,44.0,29.91,ENE,69,2.0,7.0,94,0.12,,,0.50,,2013-04-17 23:12:00,
2013-04-17 18:22:00,47.0,46.0,29.92,SE,124,3.0,10.0,95,0.05,,,0.50,,2013-04-17 23:22:00,
2013-04-17 18:32:00,47.0,45.0,29.90,NE,47,5.0,12.0,94,0.06,,,0.54,,2013-04-17 23:32:00,
2013-04-17 18:42:00,47.0,46.0,29.85,ENE,71,4.0,13.0,95,0.13,,,0.62,,2013-04-17 23:42:00,
2013-04-17 18:52:00,47.0,46.0,29.85,ENE,71,4.0,13.0,95,0.13,,,0.62,,2013-04-17 23:52:00,
2013-04-17 19:02:00,48.0,47.0,29.89,East,86,4.0,9.0,96,0.15,,,0.65,,2013-04-18 00:02:00,
2013-04-17 19:12:00,48.0,47.0,29.89,East,86,4.0,9.0,96,0.15,,,0.65,,2013-04-18 00:12:00,
2013-04-17 19:22:00,48.0,47.0,29.88,NE,42,3.0,9.0,95,0.18,,,0.68,,2013-04-18 00:22:00,
2013-04-17 19:32:00,48.0,47.0,29.90,North,355,2.0,4.0,96,0.15,,,0.70,,2013-04-18 00:32:00,
2013-04-17 19:42:00,48.0,47.0,29.91,SSE,150,0.0,5.0,96,0.20,,,0.83,,2013-04-18 00:42:00,
2013-04-17 19:52:00,48.0,47.0,29.91,SSE,150,0.0,5.0,96,0.20,,,0.83,,2013-04-18 00:52:00,
2013-04-17 20:02:00,48.0,47.0,29.86,North,11,2.0,8.0,96,0.23,,,0.88,,2013-04-18 01:02:00,
2013-04-17 20:12:00,48.0,47.0,29.85,ENE,71,1.0,6.0,96,0.34,,,1.02,,2013-04-18 01:12:00,
2013-04-17 20:22:00,48.0,47.0,29.85,ENE,71,1.0,6.0,96,0.34,,,1.02,,2013-04-18 01:22:00,
2013-04-17 20:32:00,49.0,48.0,29.84,East,88,2.0,7.0,96,0.39,,,1.09,,2013-04-18 01:32:00,
2013-04-17 20:42:00,49.0,48.0,29.85,SE,143,4.0,9.0,96,0.27,,,1.10,,2013-04-18 01:42:00,
2013-04-17 20:52:00,49.0,48.0,29.85,SE,143,4.0,9.0,96,0.27,,,1.10,,2013-04-18 01:52:00,
2013-04-17 21:02:00,50.0,49.0,29.84,SE,137,1.0,4.0,96,0.24,,,1.12,,2013-04-18 02:02:00,
2013-04-17 21:12:00,50.0,49.0,29.84,SE,137,1.0,4.0,96,0.24,,,1.12,,2013-04-18 02:12:00,
2013-04-17 21:22:00,50.0,49.0,29.84,East,95,5.0,11.0,97,0.10,,,1.12,,2013-04-18 02:22:00,
2013-04-17 21:32:00,50.0,49.0,29.84,SE,146,1.0,7.0,96,0.05,,,1.13,,2013-04-18 02:32:00,
2013-04-17 21:42:00,50.0,49.0,29.84,SE,146,1.0,7.0,96,0.05,,,1.13,,2013-04-18 02:42:00,
2013-04-17 21:52:00,50.0,49.0,29.84,SE,146,1.0,7.0,96,0.05,,,1.13,,2013-04-18 02:52:00,
2013-04-17 22:02:00,51.0,50.0,29.87,South,190,1.0,8.0,96,0.06,,,1.19,,2013-04-18 03:02:00,
2013-04-17 22:12:00,52.0,51.0,29.82,SE,130,2.0,8.0,95,0.08,,,1.21,,2013-04-18 03:12:00,
2013-04-17 22:22:00,52.0,51.0,29.82,SE,130,2.0,8.0,95,0.08,,,1.21,,2013-04-18 03:22:00,
2013-04-17 22:33:00,52.0,51.0,29.80,ESE,104,1.0,6.0,96,0.08,,,1.22,,2013-04-18 03:33:00,
2013-04-17 22:43:00,52.0,51.0,29.79,ESE,119,3.0,10.0,95,0.10,,,1.26,,2013-04-18 03:43:00,
2013-04-17 22:53:00,52.0,51.0,29.79,ESE,119,3.0,10.0,95,0.10,,,1.26,,2013-04-18 03:53:00,
2013-04-17 23:03:00,52.0,51.0,29.77,SE,133,1.0,9.0,95,0.13,,,1.32,,2013-04-18 04:03:00,
2013-04-17 23:13:00,52.0,51.0,29.77,SE,133,1.0,9.0,95,0.13,,,1.32,,2013-04-18 04:13:00,
2013-04-17 23:23:00,52.0,51.0,29.75,ESE,122,1.0,7.0,96,0.16,,,1.37,,2013-04-18 04:23:00,
2013-04-17 23:33:00,52.0,51.0,29.78,SSW,200,1.0,9.0,96,0.23,,,1.45,,2013-04-18 04:33:00,
2013-04-17 23:43:00,53.0,52.0,29.85,NNW,333,3.0,8.0,97,0.75,,,2.02,,2013-04-18 04:43:00,
2013-04-17 23:53:00,53.0,52.0,29.85,NNW,333,3.0,8.0,97,0.75,,,2.02,,2013-04-18 04:53:00,